Mansfield, OH

2:29 PM EST on February 25, 2017 (GMT -0500)
Mansfield Lahm Regional

Weather History for KMFD - February, 2013

Change the Weather History Date:

Sunday, February 10, 2013

  Actual Average Record
Temperature  
Mean Temperature 33 °F 27 °F  
Max Temperature 44 °F 35 °F 64 °F (1932)
Min Temperature 21 °F 20 °F -11 °F (1982)
Degree Days  
Heating Degree Days 32 38  
Month to date heating degree days 414 384  
Since 1 July heating degree days 3726 3984  
Cooling Degree Days 0 0  
Month to date cooling degree days 0 0  
Year to date cooling degree days 0 0  
Moisture  
Dew Point 25 °F    
Average Humidity 54    
Maximum Humidity 76    
Minimum Humidity 31    
Precipitation  
Precipitation T in 0.08 in 1.10 in (1966)
Month to date precipitation 0.57 0.85  
Year to date precipitation 3.15 3.72  
Snow  
Snow 0.00 in 0.40 in - ()
Month to date snowfall 6.7 4.1  
Since 1 July snowfall 24.9 30.6  
Snow Depth 0.00 in    
Sea Level Pressure  
Sea Level Pressure 30.05 in    
Wind  
Wind Speed 13 mph (SSE)    
Max Wind Speed 22 mph    
Max Gust Speed 39 mph    
Visibility 10 miles    
Events      
T = Trace of Precipitation, MM = Missing Value Source: NWS Daily Summary

Daily Weather History Graph

Daily Weather History Graph

Search for Another Location

Airport or City:

Trip Planner

Search our weather history database for the weather conditions in past years. The results will help you decide how hot, cold, wet, or windy it might be!

Date:

Astronomy

Feb. 10, 2013 Rise Set
Actual Time 7:30 AM EST 5:59 PM EST
Civil Twilight 7:01 AM EST 6:27 PM EST
Nautical Twilight 6:29 AM EST 6:59 PM EST
Astronomical Twilight 5:57 AM EST 7:31 PM EST
Moon 7:18 AM EST (2/10) 6:49 PM EST (2/10)
Length of Visible Light 11h 25m
Length of Day
10h 28m
New Moon, 0% of the Moon is Illuminated
Feb 10
New Moon
Feb 17
First Quarter
Feb 25
Full
Mar 4
Last Quarter
Mar 11
New

Hourly Weather History & Observations

Time (EST) Temp. Windchill Dew Point Humidity Pressure Visibility Wind Dir Wind Speed Gust Speed Precip Events Conditions
12:52 AM - - - N/A% 30.25 in 10.0 mi SE 10.4 mph - N/A   Clear
1:52 AM - - - N/A% 30.23 in 10.0 mi SSE 10.4 mph - N/A   Clear
2:52 AM - - - N/A% 30.22 in 10.0 mi SE 11.5 mph - N/A   Clear
3:52 AM - - - N/A% 30.19 in 10.0 mi SE 13.8 mph - N/A   Clear
4:52 AM - - - N/A% 30.20 in 10.0 mi SSE 12.7 mph - N/A   Clear
5:52 AM - - - N/A% 30.19 in 10.0 mi SSE 12.7 mph - N/A   Clear
6:52 AM 39.0 °F 30.3 °F 18.0 °F 43% 30.22 in 10.0 mi SSE 16.1 mph - N/A   Clear
7:52 AM 41.0 °F 35.8 °F 17.1 °F 38% 30.22 in 10.0 mi SE 8.1 mph - N/A   Clear
8:52 AM 41.0 °F 32.8 °F 19.4 °F 42% 30.17 in 10.0 mi SSE 16.1 mph - N/A   Partly Cloudy
8:59 AM 41.0 °F 33.5 °F 19.4 °F 42% 30.17 in 10.0 mi SSE 13.8 mph - N/A   Partly Cloudy
9:52 AM 48.0 °F - 19.0 °F 32% 30.13 in 10.0 mi SSE 15.0 mph - N/A   Clear
10:52 AM 35.6 °F 27.5 °F 19.0 °F 51% 30.13 in 10.0 mi SSE 11.5 mph - N/A   Mostly Cloudy
11:52 AM 42.8 °F 36.2 °F 21.0 °F 42% 30.13 in 10.0 mi SSE 12.7 mph - N/A   Mostly Cloudy
12:52 PM 42.8 °F 37.0 °F 22.1 °F 44% 30.05 in 10.0 mi SSE 10.4 mph - 0.00 in   Overcast
1:52 PM 42.8 °F 38.6 °F 24.1 °F 48% 30.03 in 10.0 mi SE 6.9 mph - N/A   Overcast
2:52 PM 42.8 °F 36.2 °F 24.1 °F 48% 30.00 in 10.0 mi SE 12.7 mph - N/A   Overcast
3:52 PM 42.8 °F 36.6 °F 24.1 °F 48% 29.98 in 10.0 mi SE 11.5 mph - N/A   Overcast
4:52 PM 42.8 °F 36.2 °F 24.1 °F 48% 29.96 in 10.0 mi SE 12.7 mph - N/A   Overcast
5:52 PM 41.0 °F 32.8 °F 25.0 °F 53% 29.93 in 10.0 mi SE 16.1 mph - N/A   Overcast
6:52 PM 42.8 °F 35.8 °F 25.0 °F 49% 29.92 in 10.0 mi SSE 13.8 mph - N/A   Mostly Cloudy
7:52 PM 42.8 °F 35.8 °F 26.1 °F 52% 29.91 in 10.0 mi SSE 13.8 mph - N/A   Overcast
8:52 PM 46.0 °F 39.0 °F 27.0 °F 47% 29.87 in 10.0 mi SSE 17.3 mph 24.2 mph N/A   Overcast
9:02 PM 44.6 °F 37.4 °F 26.6 °F 49% 29.85 in 10.0 mi SSE 16.1 mph - N/A   Overcast
9:52 PM 45.0 °F 37.1 °F 33.1 °F 63% 29.84 in 10.0 mi SSE 19.6 mph 28.8 mph N/A   Overcast
10:52 PM 44.1 °F 35.4 °F 37.9 °F 79% 29.84 in 10.0 mi South 21.9 mph 31.1 mph N/A   Overcast
11:52 PM 44.1 °F 35.7 °F 37.9 °F 79% 29.80 in 10.0 mi South 20.7 mph 31.1 mph N/A   Overcast